WFOV (USA 332)

Last updated on Thu Mar 05 2026 00:03:00 GMT+0000 (Coordinated Universal Time)

1 52940U 22073A 26063.46753017 -.00000372 00000+0 00000+0 0 9995 2 52940 3.4423 79.8821 0001666 217.1607 152.7185 1.00276137 13321
UTC large
Height (km)
Speed (km/s)
/
Latitude / Longitude
Inclination (degrees)
Orbital Period (minutes)
Azimuth
Elevation
Range (km)
Doppler Factor

Next 0 passes for location: London (51.5072 / 0.1276)

Sorry there are no passes over London.